Hamilton Island, Australia

7:11 AM AEST on April 21, 2018 (GMT +1000)
Hamilton Island

Weather History for YBHM - January, 2013

Change the Weather History Date:

Sunday, January 13, 2013

  Actual Average Record
Temperature  
Mean Temperature 82 °F -  
Max Temperature 86 °F - - ()
Min Temperature 78 °F - - ()
Cooling Degree Days 17    
Growing Degree Days 32 (Base 50)    
Moisture  
Dew Point 73 °F    
Average Humidity 76    
Maximum Humidity 89    
Minimum Humidity 62    
Precipitation  
Precipitation 0.00 in - - ()
Sea Level Pressure  
Sea Level Pressure 29.84 in    
Wind  
Wind Speed 10 mph ()    
Max Wind Speed 15 mph    
Max Gust Speed -    
T = Trace of Precipitation, MM = Missing Value Source: Averaged Metar Reports

Daily Weather History Graph

Daily Weather History Graph

Search for Another Location

Airport or City:

Astronomy

Jan. 13, 2013 Rise Set
Actual Time 5:35 AM AEST 6:50 PM AEST
Civil Twilight 5:11 AM AEST 7:14 PM AEST
Nautical Twilight 4:42 AM AEST 7:43 PM AEST
Astronomical Twilight 4:12 AM AEST 8:12 PM AEST
Moon 6:47 AM AEST (1/13) 7:53 PM AEST (1/13)
Length of Visible Light 14h 03m
Length of Day
13h 15m
New Moon, 2% of the Moon is Illuminated
Jan 13
New Moon
Jan 19
First Quarter
Jan 27
Full
Feb 3
Last Quarter
Feb 10
New

Hourly Weather History & Observations

Time (AEST) Temp. Heat Index Dew Point Humidity Pressure Visibility Wind Dir Wind Speed Gust Speed Precip Events Conditions
12:00 AM 80 °F - 75 °F 80% 29.86 in - ENE 9.2 mph - -  
12:00 AM 80.6 °F 86.2 °F 75.2 °F 84% 29.86 in - ENE 9.2 mph - N/A   Unknown
12:30 AM 78.8 °F - 73.4 °F 83% 29.83 in - ENE 11.5 mph - N/A   Unknown
1:00 AM 78.8 °F - 73.4 °F 83% 29.83 in - ENE 12.7 mph - N/A   Unknown
1:30 AM 78.8 °F - 75.2 °F 89% 29.83 in - ENE 11.5 mph - N/A   Unknown
2:00 AM 78.8 °F - 75.2 °F 89% 29.83 in - ENE 8.1 mph - N/A   Unknown
2:30 AM 78.8 °F - 75.2 °F 89% 29.83 in - NE 6.9 mph - N/A   Unknown
3:00 AM 79 °F - 75 °F 83% 29.81 in - NE 9.2 mph - -  
3:00 AM 78.8 °F - 75.2 °F 89% 29.80 in - NE 9.2 mph - N/A   Unknown
3:30 AM 78.8 °F - 73.4 °F 83% 29.83 in - East 11.5 mph - N/A   Unknown
4:00 AM 78.8 °F - 73.4 °F 83% 29.83 in - East 10.4 mph - N/A   Unknown
4:30 AM 78.8 °F - 73.4 °F 83% 29.83 in - ENE 8.1 mph - N/A   Unknown
5:00 AM 78.8 °F - 73.4 °F 83% 29.83 in - East 12.7 mph - N/A   Unknown
5:30 AM 78.8 °F - 73.4 °F 83% 29.86 in - East 10.4 mph - N/A   Unknown
6:00 AM 79 °F - 73 °F 76% 29.86 in - East 10.4 mph - -  
6:00 AM 78.8 °F - 73.4 °F 83% 29.86 in - East 10.4 mph - N/A   Unknown
6:30 AM 80.6 °F 84.6 °F 71.6 °F 74% 29.86 in - East 12.7 mph - N/A   Unknown
7:00 AM 80.6 °F 84.6 °F 71.6 °F 74% 29.86 in - ENE 11.5 mph - N/A   Unknown
7:30 AM 80.6 °F 84.6 °F 71.6 °F 74% 29.86 in - East 12.7 mph - N/A   Unknown
8:00 AM 82.4 °F 87.2 °F 71.6 °F 70% 29.86 in - East 12.7 mph - N/A   Unknown
8:30 AM 82.4 °F 88.2 °F 73.4 °F 74% 29.86 in - East 12.7 mph - N/A   Unknown
9:00 AM 83 °F - 72 °F 62% 29.87 in - East 12.7 mph - -  
9:00 AM 82.4 °F 87.2 °F 71.6 °F 70% 29.86 in - East 12.7 mph - N/A   Unknown
9:30 AM 84.2 °F 90.9 °F 73.4 °F 70% 29.86 in - East 12.7 mph - N/A   Unknown
10:00 AM 84.2 °F 90.9 °F 73.4 °F 70% 29.86 in - East 11.5 mph - N/A   Unknown
10:30 AM 86.0 °F 93.4 °F 73.4 °F 66% 29.86 in - ESE 11.5 mph - N/A   Unknown
11:00 AM 84.2 °F 89.6 °F 71.6 °F 66% 29.86 in - East 11.5 mph - N/A   Unknown
11:30 AM 84.2 °F 90.9 °F 73.4 °F 70% 29.86 in - East 12.7 mph - N/A   Unknown
12:00 PM 84 °F - 73 °F 63% 29.86 in - East 13.8 mph - -  
12:00 PM 84.2 °F 90.9 °F 73.4 °F 70% 29.86 in - East 13.8 mph - N/A   Unknown
12:30 PM 84.2 °F 90.9 °F 73.4 °F 70% 29.86 in - East 13.8 mph - N/A   Unknown
1:00 PM 84.2 °F 90.9 °F 73.4 °F 70% 29.83 in - East 12.7 mph - N/A   Unknown
1:30 PM 84.2 °F 89.6 °F 71.6 °F 66% 29.83 in - East 11.5 mph - N/A   Unknown
2:00 PM 84.2 °F 90.9 °F 73.4 °F 70% 29.83 in - East 12.7 mph - N/A   Unknown
3:00 PM 84 °F - 74 °F 65% 29.82 in - East 13.8 mph - -  
3:00 PM 84.2 °F 90.9 °F 73.4 °F 70% 29.83 in - East 13.8 mph - N/A   Unknown
3:30 PM 82.4 °F 87.2 °F 71.6 °F 70% 29.80 in - East 13.8 mph - N/A   Unknown
4:00 PM 84.2 °F 89.6 °F 71.6 °F 66% 29.80 in - East 13.8 mph - N/A   Unknown
4:30 PM 82.4 °F 87.2 °F 71.6 °F 70% 29.80 in - East 15.0 mph - N/A   Unknown
5:30 PM 82.4 °F 87.2 °F 71.6 °F 70% 29.80 in - East 12.7 mph - N/A   Unknown
6:00 PM 81 °F - 72 °F 67% 29.81 in - East 15.0 mph - -  
6:00 PM 80.6 °F 84.6 °F 71.6 °F 74% 29.80 in - East 15.0 mph - N/A   Unknown
6:30 PM 80.6 °F 84.6 °F 71.6 °F 74% 29.80 in - East 12.7 mph - N/A   Unknown
7:00 PM 80.6 °F 84.6 °F 71.6 °F 74% 29.83 in - East 12.7 mph - N/A   Unknown
7:30 PM 80.6 °F 85.4 °F 73.4 °F 79% 29.83 in - ENE 10.4 mph - N/A   Unknown
8:00 PM 80.6 °F 85.4 °F 73.4 °F 79% 29.83 in - East 12.7 mph - N/A   Unknown
8:30 PM 80.6 °F 84.6 °F 71.6 °F 74% 29.83 in - ENE 10.4 mph - N/A   Unknown
9:00 PM 79 °F - 72 °F 75% 29.83 in - NE 9.2 mph - -  
9:00 PM 78.8 °F - 71.6 °F 78% 29.83 in - NE 9.2 mph - N/A   Unknown
9:30 PM 78.8 °F - 73.4 °F 83% 29.83 in - NE 6.9 mph - N/A   Unknown
10:00 PM 78.8 °F - 73.4 °F 83% 29.83 in - NE 8.1 mph - N/A   Unknown
10:30 PM 78.8 °F - 73.4 °F 83% 29.83 in - ENE 8.1 mph - N/A   Unknown
11:00 PM 78.8 °F - 73.4 °F 83% 29.83 in - ENE 11.5 mph - N/A   Unknown
11:30 PM 78.8 °F - 73.4 °F 83% 29.83 in - ENE 9.2 mph - N/A   Unknown